View from above orbital plane
|
View from above satellite
|
Ground track
|
The orbit data is extracted from the following two-line orbital elements,
1 16631U 86014H 21060.47597011 .00001429 00000-0 11147-3 0 9992
2 16631 63.2914 239.9886 0951638 73.9499 296.4113 13.48318474 80122
Epoch (UTC): | 01 March 2021 11:25:23 |
Eccentricity: | 0.0951638 |
inclination: | 63.2914° |
perigee height: | 369 km |
apogee height: | 1788 km |
right ascension of ascending node: | 239.9886° |
argument of perigee: | 73.9499° |
revolutions per day: | 13.48318474 |
mean anomaly at epoch: | 296.4113° |
orbit number at epoch: | 8012 |
The dashed part of the orbit path shows where the satellite is in the earth's shadow,
|
|